Home > Time Zones > World Clock > Weather > Japan > Naha > Past weeks

Flag for Japan Weather past 2 weeks in Naha, Okinawa, Japan

Now
64 °F

Partly sunny.


Feels Like: 64 °F
Forecast: 60 / 63 °F
Wind: 17 mph from Northeast

Location: Naha Airport

Current Time: Jan 27, 2015 at 5:53:54 PM

Latest Report: Jan 27, 2015 at 5:00 PM


Visibility: 6 mi

Pressure: 30.01 "Hg

Humidity: 73%

Dew point: 55 °F

Location of NahaLocation

Historic Weather in Naha — Graph

°F

Naha temperature yesterday

Maximum temperature yesterday: 73 °F (at 11:00 AM)
Minimum temperature yesterday: 64 °F (at 3:00 AM)
Average temperature yesterday: 69 °F

Past Weeks' High & Low Weather Summary

 TemperatureHumidityPressure
High73 °F (Jan 26, 11:00 AM)94% (Jan 14, 5:30 PM)30.30 "Hg (Jan 14, 5:30 PM)
Low50 °F (Jan 24, 6:30 AM)36% (Jan 23, 10:30 AM)29.95 "Hg (Jan 21, 3:30 PM)
Average63 °F61%30.15 "Hg
* Reported Jan 12 4:00 PM — Jan 27 4:30 PM, Naha, Weather by CustomWeather, © 2014

Note: Actual official high and low records may vary slightly from our data, if they occured in-between our weather recording intervals... More about our weather records

Advertising

Naha weather history for previous 24 hours

 ConditionsComfort  
Time TempWeatherWind HumidityBarometerVisibility
4:30 PM
Jan 27
64 °FPartly sunny.15 mph78%30.01 "Hg6 mi
4:00 PM64 °FPartly sunny.17 mph78%30.01 "Hg6 mi
3:30 PM64 °FBroken clouds.16 mph78%30.01 "Hg6 mi
3:00 PM64 °FSprinkles. Broken clouds.15 mph78%30.01 "HgN/A
2:30 PM64 °FSprinkles. Broken clouds.16 mph83%30.01 "HgN/A
2:00 PM64 °FSprinkles. Broken clouds.15 mph78%30.01 "HgN/A
1:30 PM64 °FSprinkles. Broken clouds.15 mph83%30.04 "HgN/A
1:00 PM66 °FSprinkles. Partly sunny.14 mph78%30.04 "HgN/A
12:30 PM68 °FSprinkles. Broken clouds.12 mph78%30.07 "Hg4 mi
12:00 PM66 °FBroken clouds.12 mph78%30.07 "Hg5 mi
11:30 AM68 °FPartly sunny.9 mph78%30.07 "Hg5 mi
11:00 AM68 °FPartly sunny.6 mph78%30.09 "Hg5 mi
10:30 AM66 °FLight rain. Mostly cloudy.7 mph83%30.09 "Hg4 mi
10:00 AM64 °FLight rain. Broken clouds.9 mph83%30.09 "Hg4 mi
9:30 AM64 °FLight rain. Broken clouds.13 mph83%30.09 "Hg4 mi
9:00 AM64 °FLight rain. Broken clouds.9 mph83%30.09 "Hg5 mi
8:30 AM64 °FSprinkles. Partly sunny.15 mph83%30.09 "Hg5 mi
8:00 AM66 °FLight rain. Broken clouds.9 mph83%30.09 "Hg6 mi
7:30 AM66 °FPartly sunny.6 mph83%30.07 "HgN/A
7:00 AM66 °FPassing clouds.7 mph83%30.07 "HgN/A
6:30 AM64 °FPassing clouds.6 mph88%30.07 "HgN/A
6:00 AM64 °FPartly cloudy.6 mph88%30.04 "HgN/A
5:30 AM64 °FPartly cloudy.8 mph88%30.04 "HgN/A
5:00 AM64 °FLight rain. Partly cloudy.8 mph88%30.04 "HgN/A
4:30 AM64 °FRain. Partly cloudy.8 mph88%30.04 "Hg5 mi
4:00 AM64 °FLight rain. Partly cloudy.5 mph94%30.04 "Hg6 mi
3:30 AM64 °FLight rain. Passing clouds.5 mph94%30.04 "HgN/A
3:00 AM64 °FLight rain. Passing clouds.6 mph94%30.04 "HgN/A
2:30 AM64 °FRain. Passing clouds.2 mph94%30.04 "HgN/A
2:00 AM64 °FSprinkles. Partly cloudy.1 mph94%30.04 "HgN/A
1:30 AM66 °FRain showers. Partly cloudy.2 mph88%30.04 "HgN/A
1:00 AM66 °FLight rain. Partly cloudy.5 mph88%30.04 "HgN/A
12:30 AM66 °FLight rain. Partly cloudy.7 mph88%30.07 "HgN/A
12:00 AM66 °FLight rain. Partly cloudy.5 mph88%30.07 "HgN/A
11:30 PM
Jan 26
66 °FLight rain. Passing clouds.5 mph88%30.07 "HgN/A
11:00 PM66 °FLight rain. Partly cloudy.5 mph88%30.07 "HgN/A
10:30 PM66 °FLight rain. Passing clouds.5 mph88%30.07 "HgN/A
10:00 PM68 °FSprinkles. Partly cloudy.5 mph78%30.07 "HgN/A
9:30 PM70 °FScattered showers. Partly cloudy.5 mph69%30.07 "HgN/A
9:00 PM70 °FPartly cloudy.7 mph73%30.07 "HgN/A
8:30 PM70 °FPassing clouds.5 mph69%30.07 "HgN/A
8:00 PM68 °FPassing clouds.7 mph73%30.07 "HgN/A
7:30 PM70 °FPassing clouds.7 mph69%30.07 "HgN/A
7:00 PM70 °FPassing clouds.8 mph64%30.07 "HgN/A
6:30 PM70 °FPassing clouds.7 mph69%30.07 "HgN/A
6:00 PM70 °FPassing clouds.10 mph69%30.07 "HgN/A
5:30 PM70 °FPassing clouds.10 mph64%30.07 "HgN/A
5:00 PM72 °FPassing clouds.10 mph65%30.04 "HgN/A
Weather by CustomWeather, © 2014

See weather overviewHow to use our weather pages